Location: Caltech
(34.1382°N, 118.1253°W)
Time: 09:50:26
(UTC-07:00)

Cosmos 1408 Rocket - Visible Passes

Search period start: 26 March 2017 00:00
Search period end: 05 April 2017 00:00
Orbit: 602 x 631 km, 82.6° (Epoch: 24 March)

Date Brightness Start Highest point End Pass type
(mag) Time Alt. Az. Time Alt. Az. Time Alt. Az.
26 Mar 5.4 19:40:49 10° NE 19:42:56 13° ENE 19:44:55 10° E visible
26 Mar 4.7 21:16:41 10° NNW 21:20:56 43° W 21:22:05 35° SW visible
27 Mar 4.7 19:55:58 10° NNE 19:59:37 24° ENE 20:02:21 14° ESE visible
27 Mar 5.8 21:33:45 10° NW 21:37:15 23° W 21:39:31 16° SW visible
28 Mar 3.9 20:11:53 10° N 20:16:12 46° E 20:19:55 13° SSE visible
28 Mar 6.6 21:51:51 10° WNW 21:53:29 12° W 21:55:07 10° WSW visible
29 Mar 3.5 20:28:12 10° N 20:32:42 89° WSW 20:37:09 10° S visible
30 Mar 4.7 20:44:51 10° NNW 20:49:07 45° W 20:53:20 10° SSW visible
31 Mar 5.9 21:01:54 10° NW 21:05:26 23° W 21:08:57 10° SW visible
01 Apr 3.9 19:40:05 10° N 19:44:23 44° E 19:48:37 10° SSE visible
01 Apr 6.7 21:19:53 10° WNW 21:21:41 12° W 21:23:29 10° WSW visible
02 Apr 3.6 19:56:23 10° N 20:00:53 88° E 20:05:19 10° S visible
03 Apr 4.7 20:13:01 10° NNW 20:17:18 46° W 20:21:32 10° SSW visible
04 Apr 6.0 20:30:03 10° NW 20:33:38 24° W 20:37:11 10° SW visible
